Flag for Greece

Past Weather in Chios, Greece — Yesterday and Last 2 Weeks

Now
84 °F

Sunny.


Feels Like: 85 °F
Forecast: 83 / 74 °F
Wind: 13 mph from Northeast

Location: Chios Airport

Current Time: Jul 12, 2020 at 3:49:17 pm

Latest Report: Jul 12, 2020 at 2:50 pm


Visibility: 10 mi

Pressure: 29.74 "Hg

Humidity: 48%

Dew Point: 63 °F

Location of ChiosLocation

Past Weather in Chios — Graph

°F

Chios Temperature Yesterday

Maximum temperature yesterday: 84 °F (at 4:50 pm)
Minimum temperature yesterday: 75 °F (at 5:50 am)
Average temperature yesterday: 79 °F

High & Low Weather Summary for the Past Weeks

 TemperatureHumidityPressure
High95 °F (Jul 1, 6:50 pm)94% (Jul 3, 11:50 pm)29.89 "Hg (Jul 3, 11:50 pm)
Low68 °F (Jul 4, 5:50 am)33% (Jun 30, 3:50 pm)29.47 "Hg (Jul 6, 5:50 pm)
Average82 °F63%29.73 "Hg
* Reported Jun 27 1:50 pm — Jul 12 1:50 pm, Chios. Weather by CustomWeather, © 2020

Note: Actual official high and low records may vary slightly from our data, if they occured in-between our weather recording intervals... More about our weather records

Chios Weather History for the Previous 24 Hours

Scroll right to see more
 ConditionsComfort  
Time TempWeatherWind HumidityBarometerVisibility
1:50 pm
Sun, Jul 12
81 °FSunny.15 mph66%29.77 "Hg10 mi
12:50 pm81 °FSunny.14 mph66%29.77 "Hg10 mi
11:50 am79 °FSunny.13 mph65%29.77 "Hg10 mi
10:50 am77 °FSunny.13 mph69%29.77 "Hg10 mi
9:50 am77 °FSunny.12 mph69%29.77 "Hg10 mi
8:50 am75 °FSunny.10 mph74%29.77 "Hg10 mi
7:50 am75 °FSunny.9 mph78%29.74 "Hg10 mi
6:50 am75 °FSunny.10 mph74%29.74 "Hg10 mi
5:50 am75 °FClear.12 mph69%29.71 "Hg10 mi
4:50 am75 °FClear.No wind69%29.71 "Hg10 mi
3:50 am75 °FClear.No wind74%29.74 "Hg10 mi
2:50 am77 °FClear.1 mph69%29.74 "Hg10 mi
11:50 pm
Sat, Jul 11
77 °FClear.No wind69%29.77 "Hg10 mi
10:50 pm77 °FClear.No wind69%29.77 "Hg10 mi
9:50 pm79 °FClear.No wind65%29.77 "Hg10 mi
8:50 pm79 °FClear.No wind79%29.77 "Hg10 mi
7:50 pm82 °FSunny.No wind62%29.77 "Hg10 mi
6:50 pm84 °FSunny.No wind58%29.77 "Hg10 mi
5:50 pm84 °FSunny.7 mph55%29.77 "Hg10 mi
4:50 pm84 °FSunny.10 mph51%29.77 "Hg10 mi
3:50 pm82 °FSunny.12 mph58%29.77 "Hg10 mi
Weather by CustomWeather, © 2020

See weather overview